GW5027 Weather Reports


Display with metric or nautical units.
time (UTC)temp
F
wind
direction
speed
MPH
gust
MPH
rain 1hr
in
rain 24hr
in
rain mn
in
humidity
%
barometer
mb
20260502170503 64 269 1.0 3.0 0.03 0.07 0.07 85 1013.9
20260502170501 64 269 1.0 3.0 0.03 0.07 0.07 85 1018.4
20260502164100 63 48 1.0 5.0 0.03 0.06 0.06 86 1014.3
20260502164002 64 79 2.0 5.0 0.03 0.06 0.06 86 1018.8
20260502163600 64 99 2.0 5.0 0.03 0.06 0.06 86 1014.6
20260502163501 64 86 2.0 5.0 0.03 0.06 0.06 85 1014.6
20260502163101 64 137 1.0 4.0 0.03 0.06 0.06 86 1014.4
20260502163002 64 118 2.0 4.0 0.02 0.06 0.06 86 1018.9
20260502162601 64 91 2.0 4.0 0.02 0.06 0.06 85 1014.5
20260502162503 64 87 2.0 4.0 0.02 0.06 0.06 84 1019.0
20260502162101 64 103 1.0 4.0 0.02 0.06 0.06 85 1014.5
20260502162001 64 102 1.0 4.0 0.02 0.06 0.06 85 1019.1
20260502161601 63 97 1.0 2.0 0.02 0.05 0.05 83 1014.5
20260502161100 64 66 0.0 3.0 0.02 0.05 0.05 84 1014.6
20260502161004 64 62 1.0 3.0 0.02 0.05 0.05 83 1019.1
20260502160600 64 61 1.0 9.0 0.01 0.04 0.04 82 1014.8
20260502160501 64 345 3.0 13.0 0.01 0.04 0.04 82 1019.3
20260502152102 66 28 0.0 2.0 0.00 0.03 0.03 74 1014.7
20260502152002 66 71 0.0 2.0 0.00 0.03 0.03 74 1019.3
20260502151622 66 72 0.0 2.0 0.00 0.03 0.03 74 1014.8
20260502151505 66 72 0.0 2.0 0.00 0.03 0.03 75 1019.3
20260502151100 66 63 0.0 1.0 0.00 0.03 0.03 74 1014.8
20260502151001 66 64 0.0 2.0 0.00 0.03 0.03 74 1019.4
20260502150600 66 330 0.0 2.0 0.00 0.03 0.03 73 1014.9
20260502150501 66 330 1.0 2.0 0.00 0.03 0.03 73 1019.4
20260502130601 63 134 7.0 12.0 0.03 0.03 0.03 82 1016.1
20260502130501 63 93 7.0 12.0 0.03 0.03 0.03 82 1020.6
20260502123601 63 77 3.0 11.0 0.03 0.03 0.03 86 1016.2
20260502123501 63 82 6.0 12.0 0.03 0.03 0.03 86 1020.8
20260502123106 63 55 6.0 12.0 0.03 0.03 0.03 86 1016.4
20260502123003 63 70 7.0 12.0 0.03 0.03 0.03 85 1020.9
20260502122559 63 63 6.0 11.0 0.02 0.02 0.02 85 1016.3
20260502122501 63 84 6.0 11.0 0.02 0.02 0.02 85 1021.0
20260502122102 63 84 6.0 9.0 0.00 0.00 0.00 84 1016.7
20260502122001 64 65 4.0 9.0 0.00 0.00 0.00 84 1021.3
20260502121600 64 91 4.0 7.0 0.00 0.00 0.00 83 1016.9
20260502121501 64 86 2.0 7.0 0.00 0.00 0.00 83 1021.5
20260502121100 64 63 3.0 6.0 0.00 0.00 0.00 83 1017.0
20260502121003 64 21 2.0 6.0 0.00 0.00 0.00 83 1021.6
20260502120601 63 282 0.0 4.0 0.00 0.00 0.00 83 1017.1
20260502120501 63 281 1.0 4.0 0.00 0.00 0.00 83 1021.7
20260502115600 63 357 0.0 6.0 0.00 0.00 0.00 85 1017.1
20260502115501 63 338 2.0 6.0 0.00 0.00 0.00 85 1021.7
20260502115100 63 340 2.0 8.0 0.00 0.00 0.00 85 1017.0
20260502114603 63 295 2.0 8.0 0.00 0.00 0.00 86 1017.1
20260502114101 63 338 2.0 6.0 0.00 0.00 0.00 86 1017.3
20260502114002 63 359 3.0 6.0 0.00 0.00 0.00 86 1021.9
20260502113603 63 315 2.0 6.0 0.00 0.00 0.00 86 1017.3
20260502113501 63 323 4.0 6.0 0.00 0.00 0.00 86 1021.8
20260502113101 63 303 3.0 7.0 0.00 0.00 0.00 85 1017.3
20260502113003 63 318 4.0 7.0 0.00 0.00 0.00 85 1021.9
20260502112600 63 25 4.0 7.0 0.00 0.00 0.00 85 1017.4
20260502112501 63 348 5.0 9.0 0.00 0.00 0.00 85 1022.0
20260502112100 63 13 3.0 11.0 0.00 0.00 0.00 85 1017.4
20260502112001 63 321 5.0 11.0 0.00 0.00 0.00 85 1021.9
20260502111601 63 329 4.0 11.0 0.00 0.00 0.00 85 1017.4
20260502111501 63 330 4.0 11.0 0.00 0.00 0.00 85 1021.9
20260502111100 63 325 4.0 10.0 0.00 0.00 0.00 84 1017.4
20260502110600 63 350 4.0 10.0 0.00 0.00 0.00 84 1017.4
20260502110501 63 281 5.0 10.0 0.00 0.00 0.00 84 1021.9
20260502110104 64 351 5.0 10.0 0.00 0.00 0.00 83 1017.3
20260502110003 64 315 4.0 8.0 0.00 0.00 0.00 83 1017.3
20260502105601 64 296 4.0 11.0 0.00 0.00 0.00 82 1017.3
20260502105501 64 303 5.0 11.0 0.00 0.00 0.00 81 1021.9
20260502105100 64 278 5.0 15.0 0.00 0.00 0.00 81 1017.3
20260502105002 65 315 6.0 15.0 0.00 0.00 0.00 80 1021.8
20260502104600 66 281 5.0 15.0 0.00 0.00 0.00 78 1017.2
20260502104502 66 273 7.0 15.0 0.00 0.00 0.00 74 1021.8
20260502104100 67 250 7.0 15.0 0.00 0.00 0.00 72 1017.2
20260502104001 68 289 7.0 15.0 0.00 0.00 0.00 72 1021.7
20260502103600 71 271 7.0 13.0 0.00 0.00 0.00 59 1017.1
20260502103501 71 236 6.0 12.0 0.00 0.00 0.00 59 1021.6
20260502103108 71 273 6.0 14.0 0.00 0.00 0.00 59 1017.1
20260502103003 71 196 7.0 14.0 0.00 0.00 0.00 59 1021.6
20260502102601 71 226 6.0 14.0 0.00 0.00 0.00 60 1017.0
20260502102501 71 158 7.0 14.0 0.00 0.00 0.00 60 1021.6
20260502102101 71 236 6.0 14.0 0.00 0.00 0.00 59 1016.8
20260502102001 71 247 6.0 12.0 0.00 0.00 0.00 59 1021.4
20260502101637 71 238 4.0 9.0 0.00 0.00 0.00 59 1016.7
20260502101501 71 272 4.0 9.0 0.00 0.00 0.00 59 1021.1
20260502101103 71 149 4.0 10.0 0.00 0.00 0.00 59 1016.3
20260502101003 71 121 5.0 12.0 0.00 0.00 0.00 59 1020.9
20260502100600 71 89 5.0 12.0 0.00 0.00 0.00 59 1016.1
20260502100501 71 157 6.0 12.0 0.00 0.00 0.00 59 1020.6
20260502100121 71 126 5.0 13.0 0.00 0.00 0.00 59 1016.0
20260502091501 70 149 6.0 12.0 0.00 0.00 0.00 60 1020.6
20260502091100 70 127 5.0 9.0 0.00 0.00 0.00 60 1016.1
20260502090601 70 131 5.0 9.0 0.00 0.00 0.00 60 1016.2
20260502090501 70 52 5.0 9.0 0.00 0.00 0.00 61 1020.7
20260502080108 69 139 6.0 12.0 0.00 0.00 0.00 62 1015.9
20260502071503 69 120 10.0 19.0 0.00 0.00 0.00 61 1020.6
20260502071100 69 114 10.0 19.0 0.00 0.00 0.00 61 1016.0
20260502071001 69 130 11.0 19.0 0.00 0.00 0.00 61 1020.5
20260502070600 69 125 11.0 23.0 0.00 0.00 0.00 61 1016.0
20260502070501 69 116 11.0 23.0 0.00 0.00 0.00 61 1020.5
20260502070003 69 90 12.0 23.0 0.00 0.00 0.00 61 1016.1
20260502065601 69 108 11.0 23.0 0.00 0.00 0.00 61 1016.1
20260502065105 69 150 9.0 23.0 0.00 0.00 0.00 61 1016.0
20260502064603 69 44 12.0 22.0 0.00 0.00 0.00 61 1016.0
20260502064501 69 165 13.0 21.0 0.00 0.00 0.00 61 1020.3
20260502064100 69 108 14.0 21.0 0.00 0.00 0.00 61 1015.8
20260502063600 69 102 10.0 23.0 0.00 0.00 0.00 61 1015.8
20260502063501 69 118 12.0 23.0 0.00 0.00 0.00 61 1020.4
20260502063101 69 106 12.0 23.0 0.00 0.00 0.00 61 1015.8
20260502063002 69 117 12.0 23.0 0.00 0.00 0.00 61 1020.3
20260502062600 69 110 11.0 23.0 0.00 0.00 0.00 61 1015.6
20260502062502 69 92 11.0 19.0 0.00 0.00 0.00 61 1015.6
20260502062101 69 101 9.0 21.0 0.00 0.00 0.00 61 1015.8
20260502062003 69 115 10.0 21.0 0.00 0.00 0.00 61 1020.3
20260502061601 69 126 11.0 21.0 0.00 0.00 0.00 60 1015.8
20260502061501 69 116 9.0 19.0 0.00 0.00 0.00 60 1020.4
20260502061101 69 116 7.0 19.0 0.00 0.00 0.00 60 1015.9
20260502061001 69 135 10.0 19.0 0.00 0.00 0.00 60 1020.3
20260502060600 69 131 11.0 20.0 0.00 0.00 0.00 60 1015.8
20260502060501 69 111 11.0 20.0 0.00 0.00 0.00 60 1020.3
20260502060100 69 115 11.0 20.0 0.00 0.00 0.00 60 1015.7
20260502060004 69 85 11.0 20.0 0.00 0.00 0.00 60 1015.7
20260502055600 69 104 10.0 25.0 0.00 0.00 0.00 60 1015.8
20260502055501 69 153 11.0 25.0 0.00 0.00 0.00 60 1020.3
20260502055100 69 127 10.0 25.0 0.00 0.00 0.00 60 1015.8
20260502055001 69 105 11.0 25.0 0.00 0.00 0.00 60 1020.4
20260502054614 69 56 11.0 21.0 0.00 0.00 0.00 59 1015.8
20260502054501 69 119 10.0 21.0 0.00 0.00 0.00 59 1020.4
20260502054100 69 127 9.0 21.0 0.00 0.00 0.00 59 1015.9
20260502054001 69 82 10.0 21.0 0.00 0.00 0.00 59 1020.5
20260502053601 69 122 10.0 17.0 0.00 0.00 0.00 59 1016.0
20260502053502 69 84 9.0 17.0 0.00 0.00 0.00 59 1020.6
20260502053114 69 63 7.0 19.0 0.00 0.00 0.00 59 1015.9
20260502053001 69 146 8.0 19.0 0.00 0.00 0.00 59 1020.4
20260502052600 69 130 8.0 19.0 0.00 0.00 0.00 59 1015.8
20260502052501 69 134 9.0 17.0 0.00 0.00 0.00 59 1020.5
20260502052100 69 118 8.0 18.0 0.00 0.00 0.00 58 1015.9
20260502052003 69 90 8.0 18.0 0.00 0.00 0.00 58 1020.4
20260502051601 69 113 7.0 18.0 0.00 0.00 0.00 58 1015.8
20260502051501 69 105 8.0 16.0 0.00 0.00 0.00 58 1020.3
20260502051100 69 127 8.0 16.0 0.00 0.00 0.00 58 1015.7
20260502051001 69 165 8.0 16.0 0.00 0.00 0.00 58 1020.2
20260502050600 69 102 7.0 16.0 0.00 0.00 0.00 58 1015.6
20260502050501 69 193 7.0 16.0 0.00 0.00 0.00 58 1020.2
20260502050100 69 100 7.0 13.0 0.00 0.00 0.00 58 1015.6
20260502050009 69 89 7.0 17.0 0.00 0.00 0.00 58 1020.2
20260502050003 69 120 7.0 17.0 0.00 0.00 0.00 58 1015.6
20260502045601 69 110 5.0 17.0 0.00 0.00 0.00 58 1015.6
20260502045501 69 114 8.0 17.0 0.00 0.00 0.00 58 1020.2
20260502045101 69 121 7.0 19.0 0.00 0.00 0.00 58 1015.6
20260502045004 69 171 8.0 19.0 0.00 0.00 0.00 58 1020.1
20260502044602 69 134 9.0 19.0 0.00 0.00 0.00 58 1015.4
20260502044103 69 123 6.0 14.0 0.00 0.00 0.00 58 1015.6
20260502044001 69 77 5.0 14.0 0.00 0.00 0.00 58 1020.2
20260502043601 69 134 3.0 14.0 0.00 0.00 0.00 58 1015.7
20260502043108 69 143 6.0 20.0 0.00 0.00 0.00 57 1015.7
20260502043006 69 160 9.0 20.0 0.00 0.00 0.00 57 1020.2
20260502042600 69 115 9.0 20.0 0.00 0.00 0.00 57 1015.6
20260502042501 69 110 9.0 20.0 0.00 0.00 0.00 57 1020.1
20260502042101 69 134 6.0 23.0 0.00 0.00 0.00 57 1015.5
20260502042003 69 106 10.0 23.0 0.00 0.00 0.00 57 1020.0
20260502041601 69 118 12.0 22.0 0.00 0.00 0.00 57 1015.5
20260502041501 69 94 10.0 22.0 0.00 0.00 0.00 57 1020.0
20260502041100 69 108 8.0 18.0 0.00 0.00 0.00 57 1015.5
20260502041001 69 97 8.0 18.0 0.00 0.00 0.00 57 1020.0
20260502040600 69 139 8.0 18.0 0.00 0.00 0.00 57 1015.4
20260502040501 69 126 8.0 14.0 0.00 0.00 0.00 57 1020.1
20260502040100 69 105 7.0 14.0 0.00 0.00 0.00 57 1015.4
20260502040005 69 124 8.0 14.0 0.00 0.00 0.00 57 1020.0
20260502040003 69 124 8.0 14.0 0.00 0.00 0.00 57 1015.4
20260502035600 69 76 6.0 14.0 0.00 0.00 0.00 56 1015.3
20260502035103 70 122 8.0 14.0 0.00 0.00 0.00 56 1015.5
20260502035002 70 122 8.0 13.0 0.00 0.00 0.00 56 1019.9
20260502034600 70 99 7.0 16.0 0.00 0.00 0.00 56 1015.4
20260502034502 70 155 7.0 16.0 0.00 0.00 0.00 56 1020.0
20260502034101 70 89 6.0 16.0 0.00 0.00 0.00 56 1015.4
20260502034001 70 132 7.0 16.0 0.00 0.00 0.00 56 1020.0
20260502033600 70 96 7.0 13.0 0.00 0.00 0.00 56 1015.4
20260502033501 70 132 6.0 13.0 0.00 0.00 0.00 56 1020.0
20260502033106 70 84 6.0 15.0 0.00 0.00 0.00 56 1015.5
20260502033001 70 79 6.0 15.0 0.00 0.00 0.00 56 1020.0
20260502032600 70 142 6.0 15.0 0.00 0.00 0.00 55 1015.5
20260502032503 70 122 7.0 15.0 0.00 0.00 0.00 55 1020.1
20260502032100 70 103 8.0 14.0 0.00 0.00 0.00 55 1015.5
20260502032001 70 74 7.0 16.0 0.00 0.00 0.00 55 1020.0
20260502031604 70 99 6.0 16.0 0.00 0.00 0.00 55 1015.5
20260502031503 70 93 6.0 16.0 0.00 0.00 0.00 55 1020.1
20260502031100 70 84 6.0 15.0 0.00 0.00 0.00 55 1015.5
20260502031001 70 201 6.0 15.0 0.00 0.00 0.00 55 1020.0
20260502030601 70 95 5.0 15.0 0.00 0.00 0.00 55 1015.5
20260502030002 70 99 7.0 16.0 0.00 0.00 0.00 54 1015.6
20260502025600 70 113 8.0 16.0 0.00 0.00 0.00 54 1015.6
20260502025100 70 133 6.0 17.0 0.00 0.00 0.00 54 1015.7
20260502025001 70 181 8.0 17.0 0.00 0.00 0.00 54 1020.2
20260502024600 70 77 8.0 16.0 0.00 0.00 0.00 54 1015.6
20260502024502 70 172 7.0 15.0 0.00 0.00 0.00 54 1015.7
20260502024100 70 30 7.0 16.0 0.00 0.00 0.00 55 1015.6
20260502024001 70 137 8.0 16.0 0.00 0.00 0.00 55 1020.2
20260502023600 70 122 8.0 17.0 0.00 0.00 0.00 54 1015.6
20260502023503 70 152 8.0 17.0 0.00 0.00 0.00 54 1020.2
20260502023112 70 98 7.0 17.0 0.00 0.00 0.00 54 1015.6
20260502022601 70 91 7.0 12.0 0.00 0.00 0.00 54 1015.7
20260502022501 70 127 8.0 13.0 0.00 0.00 0.00 54 1020.2
20260502022103 70 136 6.0 17.0 0.00 0.00 0.00 54 1015.7
20260502022002 70 104 7.0 17.0 0.00 0.00 0.00 54 1020.3
20260502021600 70 63 6.0 17.0 0.00 0.00 0.00 54 1015.7
20260502021503 70 146 7.0 17.0 0.00 0.00 0.00 54 1020.3
20260502021100 70 148 7.0 17.0 0.00 0.00 0.00 54 1015.7
20260502020600 70 138 6.0 17.0 0.00 0.00 0.00 54 1015.7
20260502020501 70 108 7.0 17.0 0.00 0.00 0.00 54 1020.2
20260502020003 70 136 7.0 17.0 0.00 0.00 0.00 54 1015.6
20260502015600 70 81 7.0 18.0 0.00 0.00 0.00 54 1015.7
20260502015105 70 118 8.0 19.0 0.00 0.00 0.00 54 1015.7
20260502014605 70 147 9.0 19.0 0.00 0.00 0.00 55 1015.6
20260502014100 70 124 7.0 16.0 0.00 0.00 0.00 55 1015.7
20260502013602 70 108 8.0 18.0 0.00 0.00 0.00 55 1015.6
20260502013501 70 82 9.0 19.0 0.00 0.00 0.00 55 1020.2
20260502013100 70 100 9.0 19.0 0.00 0.00 0.00 55 1015.6
20260502013004 70 98 9.0 19.0 0.00 0.00 0.00 55 1020.2
20260502013001 70 98 8.0 19.0 0.00 0.00 0.00 55 1015.7
20260502012600 70 105 8.0 20.0 0.00 0.00 0.00 55 1015.7
20260502012501 70 138 8.0 20.0 0.00 0.00 0.00 55 1020.2
20260502012100 70 145 9.0 19.0 0.00 0.00 0.00 55 1015.7
20260502012001 70 148 9.0 19.0 0.00 0.00 0.00 55 1020.3
20260502011605 71 115 7.0 19.0 0.00 0.00 0.00 55 1015.7
20260502011101 71 90 6.0 21.0 0.00 0.00 0.00 55 1016.0
20260502011002 71 110 9.0 21.0 0.00 0.00 0.00 55 1020.5
20260502010603 71 93 11.0 24.0 0.00 0.00 0.00 55 1016.0
20260502010100 71 121 11.0 24.0 0.00 0.00 0.00 55 1015.9
20260502010005 71 105 11.0 24.0 0.00 0.00 0.00 55 1020.5
20260502005504 71 134 10.0 23.0 0.00 0.00 0.00 54 1020.6
20260502005502 71 134 10.0 23.0 0.00 0.00 0.00 54 1016.1
20260502005002 71 146 11.0 23.0 0.00 0.00 0.00 55 1016.1
20260502004502 71 32 9.0 17.0 0.00 0.00 0.00 55 1016.1
20260502004003 71 98 9.0 17.0 0.00 0.00 0.00 55 1016.2
20260502003502 71 131 7.0 16.0 0.00 0.00 0.00 55 1016.2
20260502003004 71 146 8.0 16.0 0.00 0.00 0.00 55 1020.8
20260502003001 71 146 7.0 16.0 0.00 0.00 0.00 55 1016.3
20260502002503 71 123 8.0 18.0 0.00 0.00 0.00 55 1020.9
20260502002501 71 123 8.0 18.0 0.00 0.00 0.00 55 1016.3
20260502002003 71 72 8.0 18.0 0.00 0.00 0.00 55 1021.0
20260502001502 71 104 8.0 17.0 0.00 0.00 0.00 54 1016.4
20260502001015 71 189 8.0 17.0 0.00 0.00 0.00 54 1021.1
20260502001001 71 121 8.0 17.0 0.00 0.00 0.00 54 1016.6
20260502000600 71 78 7.0 17.0 0.00 0.00 0.00 54 1016.6
20260502000501 71 165 8.0 17.0 0.00 0.00 0.00 54 1021.0
20260502000105 71 132 9.0 17.0 0.00 0.00 0.00 54 1016.6
20260502000005 71 117 9.0 17.0 0.00 0.00 0.00 54 1021.1
20260502000002 71 117 8.0 17.0 0.00 0.00 0.00 54 1016.6
20260501235602 72 151 7.0 14.0 0.00 0.00 0.00 54 1016.7
20260501235502 72 129 8.0 16.0 0.00 0.00 0.00 54 1021.2
20260501235101 71 100 7.0 16.0 0.00 0.00 0.00 54 1016.8
20260501235001 72 117 8.0 16.0 0.00 0.00 0.00 54 1021.3
20260501234601 72 125 7.0 16.0 0.00 0.00 0.00 54 1016.8
20260501234100 72 101 8.0 15.0 0.00 0.00 0.00 54 1016.8
20260501234004 72 113 8.0 15.0 0.00 0.00 0.00 54 1021.4
20260501233601 72 70 8.0 17.0 0.00 0.00 0.00 54 1016.7
20260501233501 72 155 8.0 17.0 0.00 0.00 0.00 54 1021.3
20260501233101 71 110 9.0 17.0 0.00 0.00 0.00 54 1016.9
20260501232600 72 139 6.0 16.0 0.00 0.00 0.00 54 1016.8
20260501232504 72 106 8.0 16.0 0.00 0.00 0.00 54 1021.4
20260501232103 72 107 8.0 21.0 0.00 0.00 0.00 54 1016.9
20260501232002 72 120 9.0 21.0 0.00 0.00 0.00 54 1021.5
20260501231604 72 97 11.0 21.0 0.00 0.00 0.00 54 1016.8
20260501231510 72 63 9.0 21.0 0.00 0.00 0.00 54 1021.4
20260501231100 72 99 7.0 15.0 0.00 0.00 0.00 54 1016.9
20260501231002 72 91 7.0 14.0 0.00 0.00 0.00 54 1021.5
20260501230600 72 127 5.0 14.0 0.00 0.00 0.00 55 1016.9
20260501230501 72 103 6.0 14.0 0.00 0.00 0.00 55 1021.4
20260501230004 72 116 6.0 15.0 0.00 0.00 0.00 55 1016.9
20260501225503 72 90 6.0 15.0 0.00 0.00 0.00 55 1021.4
20260501225003 72 122 5.0 11.0 0.00 0.00 0.00 56 1021.4
20260501224602 72 89 4.0 15.0 0.00 0.00 0.00 56 1016.9
20260501224502 72 101 4.0 15.0 0.00 0.00 0.00 56 1016.9
20260501224003 72 112 7.0 15.0 0.00 0.00 0.00 56 1021.5
20260501223504 72 99 6.0 10.0 0.00 0.00 0.00 56 1021.6
20260501223005 72 129 5.0 16.0 0.00 0.00 0.00 56 1021.6
20260501223002 72 129 327.0 16.0 0.00 0.00 0.00 56 1017.0
20260501222505 0 327.0 255.0 0.00 0.00 0.00 1017.1
20260501222502 0 0.0 0.0 0.00 0.00 0.00 1021.6
20260501222102 0 327.0 255.0 0.00 0.00 0.00 1017.1
20260501222001 0 0.0 0.0 0.00 0.00 0.00 1021.7
20260501221503 0 0.0 0.0 0.00 0.00 0.00 1021.7
20260501221501 0 327.0 255.0 0.00 0.00 0.00 1017.2
20260501221005 72 98 5.0 9.0 0.00 0.00 0.00 56 1021.8
20260501221001 72 98 4.0 9.0 0.00 0.00 0.00 56 1017.2
20260501220502 72 98 5.0 9.0 0.00 0.00 0.00 56 1021.8
20260501220010 72 98 4.0 9.0 0.00 0.00 0.00 56 1017.3
20260501215600 72 174 3.0 9.0 0.00 0.00 0.00 56 1017.3
20260501215503 72 101 3.0 9.0 0.00 0.00 0.00 57 1017.3
20260501215004 72 90 3.0 9.0 0.00 0.00 0.00 57 1022.1
20260501214501 71 130 3.0 9.0 0.00 0.00 0.00 58 1017.5
20260501214002 71 113 3.0 7.0 0.00 0.00 0.00 59 1022.1
20260501213502 71 100 3.0 7.0 0.00 0.00 0.00 59 1017.4
20260501213004 71 105 2.0 5.0 0.00 0.00 0.00 59 1022.0
20260501213002 71 105 2.0 5.0 0.00 0.00 0.00 59 1017.5
20260501212503 72 95 2.0 7.0 0.00 0.00 0.00 59 1021.9
20260501212004 72 125 2.0 7.0 0.00 0.00 0.00 58 1022.0
20260501212002 72 125 2.0 7.0 0.00 0.00 0.00 58 1017.4
20260501211502 72 57 2.0 6.0 0.00 0.00 0.00 58 1017.4
20260501211004 72 115 2.0 5.0 0.00 0.00 0.00 58 1022.0
20260501211001 72 115 2.0 5.0 0.00 0.00 0.00 58 1017.5
20260501210502 72 86 2.0 5.0 0.00 0.00 0.00 58 1017.5
20260501210005 72 82 0.0 5.0 0.00 0.00 0.00 58 1017.4
20260501205504 73 123 2.0 7.0 0.00 0.00 0.00 58 1017.4
20260501205502 73 123 3.0 7.0 0.00 0.00 0.00 58 1022.0
20260501205002 73 75 4.0 7.0 0.00 0.00 0.00 58 1017.3
20260501204504 73 122 3.0 7.0 0.00 0.00 0.00 58 1021.9
20260501204502 73 122 1.0 7.0 0.00 0.00 0.00 58 1017.4
20260501204003 73 65 4.0 7.0 0.00 0.00 0.00 58 1021.9
20260501204001 73 65 3.0 7.0 0.00 0.00 0.00 58 1017.3
20260501203502 73 90 3.0 7.0 0.00 0.00 0.00 59 1021.9
20260501203007 73 94 2.0 7.0 0.00 0.00 0.00 59 1017.3
20260501202501 73 65 4.0 8.0 0.00 0.00 0.00 59 1017.4
20260501202004 73 92 4.0 9.0 0.00 0.00 0.00 60 1021.9
20260501202002 73 92 3.0 9.0 0.00 0.00 0.00 60 1017.3
20260501201503 73 93 4.0 9.0 0.00 0.00 0.00 60 1021.9
20260501201003 73 115 4.0 9.0 0.00 0.00 0.00 60 1021.9
20260501200503 73 60 3.0 8.0 0.00 0.00 0.00 61 1021.9
20260501200009 73 85 4.0 8.0 0.00 0.00 0.00 61 1017.4
20260501200007 73 85 4.0 8.0 0.00 0.00 0.00 61 1021.9
20260501195502 73 104 3.0 5.0 0.00 0.00 0.00 60 1017.4
20260501195003 73 82 3.0 5.0 0.00 0.00 0.00 60 1022.0
20260501195001 73 82 2.0 5.0 0.00 0.00 0.00 60 1017.4
20260501194504 73 102 2.0 4.0 0.00 0.00 0.00 60 1022.0
20260501194502 73 102 2.0 4.0 0.00 0.00 0.00 60 1017.4
20260501194003 73 98 2.0 4.0 0.00 0.00 0.00 59 1021.9
20260501193503 73 101 2.0 4.0 0.00 0.00 0.00 59 1021.9
20260501193004 73 120 1.0 7.0 0.00 0.00 0.00 58 1017.4
20260501192504 73 86 2.0 7.0 0.00 0.00 0.00 58 1017.4
20260501192002 73 109 3.0 10.0 0.00 0.00 0.00 57 1017.3
20260501191502 74 103 5.0 10.0 0.00 0.00 0.00 56 1017.3
20260501191003 74 131 4.0 9.0 0.00 0.00 0.00 56 1021.8
20260501190502 74 142 3.0 10.0 0.00 0.00 0.00 55 1017.3
20260501190006 74 139 4.0 10.0 0.00 0.00 0.00 56 1021.8
20260501190003 74 139 2.0 10.0 0.00 0.00 0.00 56 1017.2
20260501185503 74 112 4.0 11.0 0.00 0.00 0.00 58 1021.9
20260501185501 74 112 4.0 11.0 0.00 0.00 0.00 58 1017.4
20260501185003 74 46 4.0 11.0 0.00 0.00 0.00 61 1021.8
20260501184502 74 136 5.0 11.0 0.00 0.00 0.00 67 1021.7
20260501184003 74 97 4.0 8.0 0.00 0.00 0.00 68 1017.1
20260501183502 74 79 3.0 9.0 0.00 0.00 0.00 68 1017.1
20260501183002 74 103 4.0 10.0 0.00 0.00 0.00 68 1017.0
20260501182504 74 117 5.0 10.0 0.00 0.00 0.00 68 1021.5
20260501182002 74 82 4.0 9.0 0.00 0.00 0.00 68 1021.4
20260501181502 74 96 4.0 9.0 0.00 0.00 0.00 67 1016.9
20260501181003 74 139 5.0 9.0 0.00 0.00 0.00 67 1021.4
20260501181001 74 139 4.0 9.0 0.00 0.00 0.00 67 1016.9
20260501180504 74 86 4.0 8.0 0.00 0.00 0.00 67 1021.5
20260501180502 74 86 5.0 8.0 0.00 0.00 0.00 67 1016.9
20260501180012 75 57 2.0 5.0 0.00 0.00 0.00 67 1016.9
20260501175601 75 68 2.0 4.0 0.00 0.00 0.00 66 1016.9
20260501175501 75 116 2.0 3.0 0.00 0.00 0.00 66 1021.5
20260501175004 75 65 1.0 4.0 0.00 0.00 0.00 66 1021.5
20260501175001 75 65 1.0 4.0 0.00 0.00 0.00 66 1016.9
20260501174502 75 93 1.0 5.0 0.00 0.00 0.00 66 1017.0
20260501174011 74 53 3.0 6.0 0.00 0.00 0.00 66 1021.5
20260501174001 74 77 1.0 6.0 0.00 0.00 0.00 66 1017.0
20260501173502 74 67 3.0 6.0 0.00 0.00 0.00 67 1021.4
20260501173005 74 62 3.0 6.0 0.00 0.00 0.00 67 1021.5
20260501173002 74 62 3.0 6.0 0.00 0.00 0.00 67 1016.9
20260501172502 74 62 2.0 7.0 0.00 0.00 0.00 67 1016.9
20260501172004 74 61 3.0 9.0 0.00 0.00 0.00 67 1016.9
20260501172002 74 61 4.0 9.0 0.00 0.00 0.00 67 1021.5